GW4073 Weather Reports


Display with metric or nautical units.
time (UTC)temp
F
wind
direction
speed
MPH
gust
MPH
rain 1hr
in
rain 24hr
in
rain mn
in
humidity
%
barometer
mb
20260508024901 62 67 2.0 2.0 0.00 0.00 0.00 32 1012.2
20260508024358 63 60 1.0 2.0 0.00 0.00 0.00 33 1012.2
20260508023855 64 57 2.0 2.0 0.00 0.00 0.00 32 1012.2
20260508023351 64 25 0.0 3.0 0.00 0.00 0.00 29 1012.1
20260508022848 64 310 0.0 2.0 0.00 0.00 0.00 28 1011.9
20260508022344 65 67 2.0 2.0 0.00 0.00 0.00 29 1011.7
20260508021841 66 89 0.0 2.0 0.00 0.00 0.00 29 1011.8
20260508021337 67 352 0.0 1.0 0.00 0.00 0.00 25 1011.6
20260508020833 67 43 1.0 2.0 0.00 0.00 0.00 26 1011.5
20260508020331 68 13 0.0 1.0 0.00 0.00 0.00 26 1011.5
20260508015828 69 245 2.0 2.0 0.00 0.00 0.00 23 1011.5
20260508015326 69 320 1.0 2.0 0.00 0.00 0.00 25 1011.4
20260508014822 69 326 0.0 3.0 0.00 0.00 0.00 24 1011.5
20260508014320 70 199 0.0 2.0 0.00 0.00 0.00 23 1011.5
20260508013815 70 257 2.0 4.0 0.00 0.00 0.00 24 1011.5
20260508013311 69 290 0.0 3.0 0.00 0.00 0.00 25 1011.4
20260508012809 70 259 3.0 3.0 0.00 0.00 0.00 24 1011.2
20260508012301 70 183 1.0 3.0 0.00 0.00 0.00 23 1011.6
20260508011758 71 173 0.0 3.0 0.00 0.00 0.00 24 1011.4
20260508011256 70 298 2.0 4.0 0.00 0.00 0.00 24 1011.5
20260508010752 71 274 4.0 4.0 0.00 0.00 0.00 23 1011.2
20260508010251 72 266 3.0 5.0 0.00 0.00 0.00 24 1011.2
20260508005747 72 237 3.0 6.0 0.00 0.00 0.00 23 1011.5
20260508005244 73 257 2.0 8.0 0.00 0.00 0.00 23 1011.1
20260508004739 74 192 0.0 4.0 0.00 0.00 0.00 23 1010.8
20260508004236 74 321 3.0 4.0 0.00 0.00 0.00 24 1011.2
20260508003733 75 306 5.0 5.0 0.00 0.00 0.00 21 1011.2
20260508003230 75 171 3.0 5.0 0.00 0.00 0.00 23 1011.1
20260508002727 75 289 5.0 9.0 0.00 0.00 0.00 21 1011.1
20260508002224 76 138 5.0 7.0 0.00 0.00 0.00 21 1011.2
20260508001720 76 284 3.0 5.0 0.00 0.00 0.00 22 1011.2
20260508001215 76 253 3.0 7.0 0.00 0.00 0.00 22 1011.0
20260508000712 77 320 2.0 5.0 0.00 0.00 0.00 21 1011.1
20260508000212 77 171 3.0 4.0 0.00 0.00 0.00 22 1011.2
20260507235705 77 260 2.0 7.0 0.00 0.00 0.00 22 1011.1
20260507235203 77 233 4.0 7.0 0.00 0.00 0.00 21 1011.1
20260507234700 76 215 6.0 6.0 0.00 0.00 0.00 21 1011.2
20260507234156 76 301 2.0 6.0 0.00 0.00 0.00 24 1011.4
20260507233653 78 296 3.0 6.0 0.00 0.00 0.00 22 1011.4
20260507233151 78 255 3.0 5.0 0.00 0.00 0.00 22 1011.2
20260507232648 79 225 6.0 8.0 0.00 0.00 0.00 21 1011.2
20260507232145 78 244 4.0 6.0 0.00 0.00 0.00 21 1011.5
20260507231641 79 297 4.0 6.0 0.00 0.00 0.00 23 1011.2
20260507231139 79 229 2.0 4.0 0.00 0.00 0.00 20 1011.4
20260507230635 80 285 2.0 5.0 0.00 0.00 0.00 21 1011.4
20260507230132 79 255 4.0 11.0 0.00 0.00 0.00 21 1011.6
20260507225626 79 193 7.0 8.0 0.00 0.00 0.00 20 1011.7
20260507225123 79 236 2.0 5.0 0.00 0.00 0.00 22 1011.6
20260507224619 79 272 4.0 7.0 0.00 0.00 0.00 20 1011.6
20260507224116 80 290 2.0 4.0 0.00 0.00 0.00 20 1011.6
20260507223612 80 195 1.0 6.0 0.00 0.00 0.00 20 1011.8
20260507223109 80 204 2.0 4.0 0.00 0.00 0.00 19 1011.8
20260507222606 80 253 4.0 5.0 0.00 0.00 0.00 21 1012.1
20260507222102 79 268 2.0 6.0 0.00 0.00 0.00 21 1012.1
20260507221558 80 251 2.0 5.0 0.00 0.00 0.00 19 1012.2
20260507221055 78 239 4.0 7.0 0.00 0.00 0.00 21 1012.3
20260507220552 79 182 4.0 13.0 0.00 0.00 0.00 20 1012.2
20260507220050 78 259 5.0 7.0 0.00 0.00 0.00 22 1012.3
20260507215546 79 238 4.0 5.0 0.00 0.00 0.00 21 1012.5
20260507215044 79 272 4.0 5.0 0.00 0.00 0.00 24 1013.0
20260507214541 78 293 5.0 6.0 0.00 0.00 0.00 22 1012.8
20260507214037 79 308 2.0 5.0 0.00 0.00 0.00 19 1012.8
20260507213533 80 320 3.0 6.0 0.00 0.00 0.00 22 1013.0
20260507213030 79 239 2.0 5.0 0.00 0.00 0.00 23 1013.1
20260507212526 78 277 3.0 9.0 0.00 0.00 0.00 24 1012.9
20260507212023 77 206 2.0 5.0 0.00 0.00 0.00 21 1013.2
20260507211520 75 265 3.0 4.0 0.00 0.00 0.00 24 1013.1
20260507211016 75 282 3.0 4.0 0.00 0.00 0.00 28 1013.2
20260507210514 75 302 1.0 3.0 0.00 0.00 0.00 26 1013.5
20260507210010 74 129 2.0 4.0 0.00 0.00 0.00 24 1013.6
20260507205507 74 303 2.0 8.0 0.00 0.00 0.00 25 1013.6
20260507205003 75 262 3.0 5.0 0.00 0.00 0.00 25 1013.6
20260507204459 74 258 2.0 7.0 0.00 0.00 0.00 26 1013.6
20260507203957 76 287 4.0 7.0 0.00 0.00 0.00 25 1013.8
20260507203455 78 316 2.0 4.0 0.00 0.00 0.00 25 1013.5
20260507202951 75 286 3.0 4.0 0.00 0.00 0.00 27 1013.7
20260507202448 76 307 5.0 6.0 0.00 0.00 0.00 23 1013.8
20260507201944 78 327 2.0 6.0 0.00 0.00 0.00 24 1013.8
20260507201439 77 279 5.0 6.0 0.00 0.00 0.00 26 1014.2
20260507200936 76 80 0.0 6.0 0.00 0.00 0.00 21 1014.1
20260507200431 77 191 3.0 5.0 0.00 0.00 0.00 22 1014.1
20260507195927 78 277 3.0 4.0 0.00 0.00 0.00 24 1014.2
20260507195425 76 238 4.0 5.0 0.00 0.00 0.00 25 1014.3
20260507194922 75 175 3.0 6.0 0.00 0.00 0.00 23 1014.3
20260507194419 75 242 4.0 11.0 0.00 0.00 0.00 26 1014.3
20260507193915 74 222 0.0 7.0 0.00 0.00 0.00 22 1014.3
20260507193412 76 304 3.0 7.0 0.00 0.00 0.00 26 1014.5
20260507192909 77 267 2.0 4.0 0.00 0.00 0.00 24 1014.7
20260507192405 76 282 4.0 4.0 0.00 0.00 0.00 25 1014.5
20260507191902 75 298 2.0 5.0 0.00 0.00 0.00 25 1014.5
20260507191358 75 158 6.0 6.0 0.00 0.00 0.00 23 1015.0
20260507190854 74 336 2.0 6.0 0.00 0.00 0.00 23 1014.8
20260507190353 73 125 2.0 8.0 0.00 0.00 0.00 25 1015.0
20260507185851 75 250 2.0 10.0 0.00 0.00 0.00 26 1015.0
20260507185348 74 345 2.0 9.0 0.00 0.00 0.00 26 1015.1
20260507184845 73 264 3.0 10.0 0.00 0.00 0.00 26 1015.1
20260507184343 75 221 2.0 4.0 0.00 0.00 0.00 26 1015.4
20260507183839 74 248 3.0 4.0 0.00 0.00 0.00 24 1015.4
20260507183336 73 214 2.0 5.0 0.00 0.00 0.00 25 1015.4
20260507182834 74 276 3.0 4.0 0.00 0.00 0.00 26 1015.4
20260507182329 73 285 2.0 7.0 0.00 0.00 0.00 22 1015.5
20260507181826 74 275 3.0 4.0 0.00 0.00 0.00 28 1015.5
20260507181322 75 199 5.0 5.0 0.00 0.00 0.00 23 1015.9
20260507180819 73 285 4.0 5.0 0.00 0.00 0.00 25 1015.8
20260507180316 75 301 2.0 3.0 0.00 0.00 0.00 26 1015.6
20260507175811 72 61 2.0 3.0 0.00 0.00 0.00 25 1015.9
20260507175309 74 213 2.0 5.0 0.00 0.00 0.00 23 1015.9
20260507174806 72 335 0.0 5.0 0.00 0.00 0.00 23 1015.9
20260507174304 71 225 4.0 5.0 0.00 0.00 0.00 27 1015.6
20260507173801 71 205 0.0 3.0 0.00 0.00 0.00 25 1015.7
20260507173258 71 154 2.0 4.0 0.00 0.00 0.00 24 1015.9
20260507172754 72 302 3.0 3.0 0.00 0.00 0.00 26 1016.1
20260507172251 72 291 3.0 4.0 0.00 0.00 0.00 26 1015.9
20260507171747 71 251 2.0 3.0 0.00 0.00 0.00 27 1015.9
20260507171244 70 139 3.0 5.0 0.00 0.00 0.00 25 1016.1
20260507170741 70 302 2.0 4.0 0.00 0.00 0.00 29 1016.1
20260507170237 70 220 4.0 8.0 0.00 0.00 0.00 25 1016.2
20260507165733 69 329 2.0 5.0 0.00 0.00 0.00 28 1016.3
20260507165229 70 194 5.0 5.0 0.00 0.00 0.00 24 1016.1
20260507164726 69 140 2.0 4.0 0.00 0.00 0.00 26 1016.3
20260507164223 68 229 2.0 4.0 0.00 0.00 0.00 26 1016.4
20260507163720 67 89 0.0 4.0 0.00 0.00 0.00 25 1016.4
20260507163218 68 190 1.0 5.0 0.00 0.00 0.00 25 1016.6
20260507162713 66 230 0.0 3.0 0.00 0.00 0.00 29 1016.6
20260507162210 65 333 2.0 4.0 0.00 0.00 0.00 30 1016.6
20260507161706 64 322 2.0 3.0 0.00 0.00 0.00 31 1016.4
20260507161203 64 296 0.0 3.0 0.00 0.00 0.00 31 1016.9
20260507160659 64 261 1.0 3.0 0.00 0.00 0.00 29 1016.6
20260507160156 62 298 1.0 3.0 0.00 0.00 0.00 33 1017.0
20260507155651 62 275 1.0 3.0 0.00 0.00 0.00 35 1016.8
20260507155148 62 266 2.0 2.0 0.00 0.00 0.00 35 1016.8
20260507154644 61 256 1.0 3.0 0.00 0.00 0.00 36 1017.1
20260507154142 60 240 2.0 2.0 0.00 0.00 0.00 35 1017.0
20260507153639 59 169 2.0 4.0 0.00 0.00 0.00 35 1017.1
20260507153135 59 290 2.0 3.0 0.00 0.00 0.00 38 1017.0
20260507152632 60 309 1.0 2.0 0.00 0.00 0.00 36 1017.2
20260507152127 58 249 2.0 2.0 0.00 0.00 0.00 36 1017.2
20260507151624 58 50 0.0 2.0 0.00 0.00 0.00 36 1017.1
20260507151121 56 217 1.0 2.0 0.00 0.00 0.00 39 1017.4
20260507150618 54 264 1.0 3.0 0.00 0.00 0.00 41 1017.1
20260507150114 54 224 0.0 3.0 0.00 0.00 0.00 41 1017.4
20260507145609 53 269 0.0 2.0 0.00 0.00 0.00 41 1017.4
20260507145107 52 328 1.0 2.0 0.00 0.00 0.00 43 1017.5
20260507144603 52 265 1.0 2.0 0.00 0.00 0.00 44 1017.4
20260507144101 51 62 0.0 2.0 0.00 0.00 0.00 44 1017.2
20260507143558 50 246 0.0 2.0 0.00 0.00 0.00 45 1017.4
20260507143055 49 262 2.0 3.0 0.00 0.00 0.00 45 1017.5
20260507142555 49 354 1.0 2.0 0.00 0.00 0.00 47 1017.0
20260507142053 49 340 1.0 1.0 0.00 0.00 0.00 49 1017.4
20260507141548 49 232 0.0 1.0 0.00 0.00 0.00 46 1017.1
20260507141045 49 345 0.0 1.0 0.00 0.00 0.00 47 1017.2
20260507140542 50 200 2.0 4.0 0.00 0.00 0.00 42 1017.0
20260507140040 50 29 1.0 5.0 0.00 0.00 0.00 40 1017.0
20260507135536 49 41 6.0 6.0 0.00 0.00 0.00 39 1017.0
20260507135034 48 2 1.0 4.0 0.00 0.00 0.00 40 1017.0
20260507134530 48 64 3.0 7.0 0.00 0.00 0.00 40 1016.9
20260507134026 47 351 2.0 5.0 0.00 0.00 0.00 41 1016.8
20260507133522 45 37 4.0 7.0 0.00 0.00 0.00 43 1016.9
20260507133021 44 75 4.0 6.0 0.00 0.00 0.00 44 1016.8
20260507132517 44 63 6.0 7.0 0.00 0.00 0.00 44 1016.9
20260507132013 44 64 4.0 6.0 0.00 0.00 0.00 44 1016.9
20260507131510 44 61 5.0 7.0 0.00 0.00 0.00 43 1016.5
20260507131007 44 61 4.0 9.0 0.00 0.00 0.00 43 1016.6
20260507130504 43 53 5.0 10.0 0.00 0.00 0.00 44 1016.5
20260507130003 43 19 2.0 11.0 0.00 0.00 0.00 44 1016.5
20260507125501 43 93 3.0 8.0 0.00 0.00 0.00 43 1016.4
20260507124957 43 64 7.0 14.0 0.00 0.00 0.00 44 1016.6
20260507124454 42 324 3.0 8.0 0.00 0.00 0.00 44 1016.6
20260507123952 42 32 2.0 7.0 0.00 0.00 0.00 45 1016.8
20260507123449 42 343 0.0 6.0 0.00 0.00 0.00 47 1016.5
20260507122945 42 327 0.0 4.0 0.00 0.00 0.00 46 1016.4
20260507122441 42 194 2.0 4.0 0.00 0.00 0.00 46 1016.5
20260507121937 43 65 4.0 7.0 0.00 0.00 0.00 43 1016.5
20260507121432 43 35 2.0 6.0 0.00 0.00 0.00 42 1016.5
20260507120930 43 33 6.0 6.0 0.00 0.00 0.00 43 1016.5
20260507120426 43 346 1.0 10.0 0.00 0.00 0.00 42 1016.6
20260507115922 44 42 4.0 9.0 0.00 0.00 0.00 41 1016.6
20260507115418 44 67 5.0 13.0 0.00 0.00 0.00 41 1016.8
20260507114914 44 39 9.0 14.0 0.00 0.00 0.00 41 1016.6
20260507114411 44 65 6.0 17.0 0.00 0.00 0.00 41 1016.8
20260507113908 44 59 9.0 14.0 0.00 0.00 0.00 41 1016.5
20260507113406 44 34 7.0 16.0 0.00 0.00 0.00 41 1016.4
20260507051058 54 50 10.0 15.0 0.00 0.00 0.00 32 1016.2
20260507050554 54 50 10.0 15.0 0.00 0.00 0.00 32 1016.2
20260507050051 54 50 10.0 15.0 0.00 0.00 0.00 32 1016.2
20260507045548 54 73 7.0 11.0 0.00 0.00 0.00 32 1016.1
20260507045045 54 67 4.0 10.0 0.00 0.00 0.00 32 1016.1
20260507044541 53 60 4.0 7.0 0.00 0.00 0.00 32 1016.2
20260507044038 52 53 4.0 8.0 0.00 0.00 0.00 34 1016.2
20260507043534 50 59 3.0 6.0 0.00 0.00 0.00 39 1016.1
20260507043032 48 63 4.0 6.0 0.00 0.00 0.00 42 1016.2
20260507042527 48 58 3.0 4.0 0.00 0.00 0.00 45 1016.3
20260507042017 48 42 3.0 4.0 0.00 0.00 0.00 45 1016.2
20260507041515 48 93 3.0 5.0 0.00 0.00 0.00 43 1016.4
20260507041011 49 72 3.0 5.0 0.00 0.00 0.00 40 1016.1
20260507040507 49 86 1.0 5.0 0.00 0.00 0.00 42 1016.1
20260507040002 49 45 4.0 6.0 0.00 0.00 0.00 41 1016.1
20260507035459 50 54 4.0 5.0 0.00 0.00 0.00 40 1015.9
20260507034951 50 103 3.0 4.0 0.00 0.00 0.00 39 1015.9
20260507034448 51 105 4.0 6.0 0.00 0.00 0.00 38 1015.8
20260507033946 51 64 2.0 4.0 0.00 0.00 0.00 38 1015.6
20260507033444 51 87 3.0 4.0 0.00 0.00 0.00 38 1015.5
20260507032941 51 73 2.0 5.0 0.00 0.00 0.00 39 1015.5
20260507032437 51 84 3.0 4.0 0.00 0.00 0.00 41 1015.4
20260507031933 51 80 2.0 2.0 0.00 0.00 0.00 41 1015.2
20260507031430 52 68 2.0 4.0 0.00 0.00 0.00 38 1015.1
20260507030927 53 38 2.0 5.0 0.00 0.00 0.00 35 1015.1
20260507030424 54 46 3.0 4.0 0.00 0.00 0.00 34 1015.0
20260507025921 55 54 4.0 6.0 0.00 0.00 0.00 33 1014.9
20260507025418 55 52 2.0 3.0 0.00 0.00 0.00 31 1014.9